Ketchikan, AK

2:18 AM AKST on January 21, 2019 (GMT -0900)
Ketchikan International

Weather History for PAKT - December, 2018

Change the Weather History Date:

Tuesday, December 4, 2018

  Actual Average Record
Temperature  
Mean Temperature 34 °F -  
Max Temperature 37 °F 39 °F 51 °F (1959)
Min Temperature 32 °F 30 °F 8 °F (1970)
Degree Days  
Heating Degree Days 30    
Moisture  
Dew Point 31 °F    
Average Humidity 87    
Maximum Humidity 92    
Minimum Humidity 81    
Precipitation  
Precipitation 0.00 in - - ()
Sea Level Pressure  
Sea Level Pressure 30.44 in    
Wind  
Wind Speed 4 mph (West)    
Max Wind Speed 7 mph    
Max Gust Speed -    
Visibility 10 miles    
Events      
Averages and records for this station are not official NWS values.
T = Trace of Precipitation, MM = Missing Value Source: NWS Daily Summary

Daily Weather History Graph

Daily Weather History Graph

Search for Another Location

Airport or City:

Astronomy

Dec. 04, 2018 Rise Set
Actual Time 7:54 AM AKST 3:19 PM AKST
Civil Twilight 7:10 AM AKST 4:03 PM AKST
Nautical Twilight 6:22 AM AKST 4:51 PM AKST
Astronomical Twilight 5:38 AM AKST 5:35 PM AKST
Moon 4:28 AM AKST (12/4) 2:38 PM AKST (12/4)
Length of Visible Light 8h 53m
Length of Day
7h 24m
Waning Crescent, 6% of the Moon is Illuminated
Dec 4
Waning Crescent
Dec 6
New
Dec 15
First Quarter
Dec 22
Full
Dec 29
Last Quarter

Hourly Weather History & Observations

Time (AKST) Temp. Windchill Dew Point Humidity Pressure Visibility Wind Dir Wind Speed Gust Speed Precip Events Conditions
12:53 AM 32.0 °F 27.5 °F 28.9 °F 88% 30.45 in 10.0 mi SE 4.6 mph - N/A   Overcast
1:53 AM 33.1 °F 28.7 °F 30.0 °F 89% 30.45 in 10.0 mi SE 4.6 mph - N/A   Overcast
2:53 AM 33.1 °F 28.7 °F 30.0 °F 89% 30.46 in 10.0 mi SSE 4.6 mph - N/A   Overcast
3:01 AM 33.1 °F 28.7 °F 30.0 °F 89% 30.45 in 10.0 mi SE 4.6 mph - N/A   Overcast
3:53 AM 33.1 °F 30.0 °F 30.9 °F 92% 30.45 in 10.0 mi SSE 3.5 mph - N/A   Overcast
4:53 AM 33.1 °F - 30.9 °F 92% 30.45 in 10.0 mi Calm Calm - N/A   Overcast
5:53 AM 34.0 °F 31.0 °F 30.9 °F 89% 30.45 in 10.0 mi South 3.5 mph - N/A   Overcast
6:07 AM 33.8 °F 30.8 °F 30.2 °F 87% 30.44 in 10.0 mi SE 3.5 mph - N/A   Overcast
6:53 AM 33.8 °F - 30.2 °F 87% 30.45 in 10.0 mi Calm Calm - N/A   Overcast
7:53 AM 33.1 °F - 30.0 °F 89% 30.45 in 10.0 mi Calm Calm - N/A   Overcast
8:53 AM 35.1 °F - 30.0 °F 82% 30.46 in 10.0 mi Calm Calm - N/A   Overcast
9:53 AM 35.6 °F - 30.2 °F 81% 30.46 in 10.0 mi Calm Calm - N/A   Overcast
10:51 AM 35.6 °F 32.8 °F 30.2 °F 81% 30.45 in 10.0 mi SE 3.5 mph - N/A   Overcast
10:53 AM 36.0 °F 33.3 °F 30.9 °F 82% 30.45 in 10.0 mi SE 3.5 mph - N/A   Overcast
11:53 AM 37.4 °F 34.9 °F 32.0 °F 81% 30.45 in 10.0 mi NW 3.5 mph - N/A   Overcast
12:53 PM 37.4 °F 33.8 °F 33.8 °F 87% 30.44 in 10.0 mi NW 4.6 mph - N/A   Mostly Cloudy
1:53 PM 37.4 °F - 33.8 °F 87% 30.44 in 10.0 mi Calm Calm - N/A   Mostly Cloudy
2:53 PM 37.4 °F 34.9 °F 33.8 °F 87% 30.43 in 10.0 mi West 3.5 mph - N/A   Mostly Cloudy
3:53 PM 35.6 °F 31.7 °F 32.0 °F 87% 30.43 in 10.0 mi WNW 4.6 mph - N/A   Mostly Cloudy
4:53 PM 35.1 °F 31.0 °F 33.1 °F 92% 30.43 in 10.0 mi NW 4.6 mph - N/A   Overcast
5:53 PM 35.1 °F 31.0 °F 33.1 °F 92% 30.43 in 10.0 mi WNW 4.6 mph - N/A   Overcast
6:53 PM 36.0 °F 33.3 °F 33.1 °F 89% 30.42 in 10.0 mi West 3.5 mph - N/A   Overcast
7:53 PM 35.1 °F 30.1 °F 32.0 °F 89% 30.41 in 10.0 mi NNW 5.8 mph - N/A   Mostly Cloudy
8:53 PM 36.0 °F 30.3 °F 32.0 °F 86% 30.41 in 10.0 mi North 6.9 mph - N/A   Clear
9:53 PM 34.0 °F 29.8 °F 32.0 °F 92% 30.41 in 10.0 mi NW 4.6 mph - N/A   Clear
10:53 PM 35.1 °F 29.3 °F 30.9 °F 85% 30.41 in 10.0 mi NNW 6.9 mph - N/A   Clear
11:53 PM 35.1 °F 29.3 °F 30.9 °F 85% 30.40 in 10.0 mi WNW 6.9 mph - N/A   Clear